Flag for Germany Weather past 2 weeks in Hamburg, Hamburg, Germany

Now
54 °F

Light rain. Partly sunny.


Feels Like: 49 °F
Forecast: 47 / 56 °F
Wind: 16 mph from South

Location: Hamburg-Fuhlsbuettel

Current Time: Oct 21, 2014 at 3:45:51 PM

Latest Report: Oct 21, 2014 at 3:20 PM


Visibility: N/A

Pressure: 29.47 "Hg

Humidity: 94%

Dew point: 52 °F

Location of HamburgLocation

Historic Weather in Hamburg — Graph

°F

Hamburg temperature yesterday

Maximum temperature yesterday: 61 °F (at 1:50 PM)
Minimum temperature yesterday: 54 °F (at 10:50 PM)
Average temperature yesterday: 58 °F

Past Weeks' High & Low Weather Summary

 TemperatureHumidityPressure
High72 °F (Oct 19, 1:50 PM)100% (Oct 7, 1:50 PM)30.12 "Hg (Oct 7, 1:50 PM)
Low48 °F (Oct 8, 6:50 AM)59% (Oct 6, 7:20 PM)29.50 "Hg (Oct 7, 2:20 PM)
Average57 °F87%29.80 "Hg
* Reported Oct 6 2:20 PM — Oct 21 2:20 PM, Hamburg, Weather by CustomWeather, © 2014

Note: Actual official high and low records may vary slightly from our data, if they occured in-between our weather recording intervals... More about our weather records

Advertising

Hamburg weather history for previous 24 hours

 ConditionsComfort  
Time TempWeatherWind HumidityBarometerVisibility
2:20 PM
Oct 21
55 °FLight rain. Mostly cloudy.15 mph88%29.50 "HgN/A
1:50 PM55 °FLight rain. Partly sunny.16 mph88%29.53 "HgN/A
1:20 PM55 °FLight rain. Partly sunny.16 mph88%29.53 "HgN/A
12:50 PM55 °FLight rain. Partly sunny.14 mph88%29.56 "HgN/A
12:20 PM55 °FPartly sunny.15 mph88%29.59 "HgN/A
11:50 AM55 °FPartly sunny.15 mph88%29.59 "HgN/A
11:20 AM55 °FLight rain. Partly sunny.15 mph88%29.62 "Hg6 mi
10:50 AM54 °FRain. Partly sunny.15 mph94%29.62 "Hg2 mi
10:20 AM55 °FLight rain. Partly sunny.15 mph88%29.65 "Hg6 mi
9:50 AM54 °FLight rain. Partly sunny.15 mph94%29.65 "HgN/A
9:20 AM54 °FPartly sunny.13 mph94%29.68 "HgN/A
8:50 AM54 °FLight rain. Passing clouds.14 mph94%29.68 "HgN/A
8:20 AM54 °FLight rain. Passing clouds.13 mph94%29.68 "HgN/A
7:50 AM54 °FLight rain. Passing clouds.10 mph94%29.68 "HgN/A
7:20 AM54 °FPassing clouds.14 mph94%29.71 "HgN/A
6:50 AM54 °FPassing clouds.13 mph94%29.71 "Hg6 mi
6:20 AM54 °FPassing clouds.14 mph94%29.71 "Hg6 mi
5:50 AM54 °FPassing clouds.13 mph94%29.74 "HgN/A
5:20 AM54 °FPartly cloudy.12 mph94%29.74 "HgN/A
4:50 AM54 °FClear.9 mph94%29.74 "Hg10 mi
4:20 AM50 °FPartly cloudy.6 mph100%29.77 "HgN/A
3:50 AM52 °FPartly cloudy.7 mph94%29.77 "HgN/A
3:20 AM54 °FPartly cloudy.8 mph94%29.77 "HgN/A
2:50 AM54 °FPartly cloudy.7 mph94%29.80 "HgN/A
2:20 AM54 °FPartly cloudy.8 mph94%29.80 "HgN/A
1:50 AM54 °FPartly cloudy.8 mph94%29.80 "HgN/A
1:20 AM54 °FPartly cloudy.8 mph94%29.80 "HgN/A
12:50 AM54 °FPassing clouds.8 mph94%29.80 "HgN/A
12:20 AM54 °FPassing clouds.8 mph94%29.80 "HgN/A
11:50 PM
Oct 20
54 °FLight rain. Passing clouds.7 mph94%29.80 "HgN/A
11:20 PM54 °FLight rain. Passing clouds.9 mph94%29.83 "HgN/A
10:50 PM54 °FLight rain. Passing clouds.10 mph94%29.83 "HgN/A
10:20 PM55 °FLight rain. Passing clouds.8 mph88%29.83 "HgN/A
9:50 PM55 °FLight rain. Passing clouds.10 mph88%29.83 "HgN/A
9:20 PM55 °FPartly cloudy.7 mph88%29.86 "HgN/A
8:50 PM55 °FLight rain. Passing clouds.7 mph88%29.83 "HgN/A
8:20 PM55 °FLight rain. Passing clouds.8 mph88%29.83 "HgN/A
7:50 PM57 °FLight rain. Passing clouds.9 mph77%29.86 "HgN/A
7:20 PM55 °FScattered showers. Partly cloudy.5 mph82%29.86 "HgN/A
6:50 PM57 °FBroken clouds.7 mph77%29.86 "HgN/A
6:20 PM57 °FScattered showers. Broken clouds.7 mph82%29.86 "HgN/A
5:50 PM57 °FSprinkles. Scattered clouds.5 mph77%29.86 "HgN/A
5:20 PM57 °FScattered clouds.10 mph77%29.86 "HgN/A
4:50 PM59 °FScattered clouds.12 mph72%29.86 "HgN/A
4:20 PM59 °FScattered clouds.12 mph72%29.86 "HgN/A
3:50 PM59 °FScattered clouds.14 mph72%29.86 "HgN/A
3:20 PM59 °FScattered clouds.14 mph72%29.86 "HgN/A
Weather by CustomWeather, © 2014

See weather overviewHow to use our weather pages